ONEWEB-0052, 45156

Orbit data source: Space-Track

ONEWEB-0052, 45156 is a payload satellite owned by One Web (UK) in LEO that was launched on Thu, 06 Feb 2020 UTC via a SOYUZ-2-1B launch vehicle from the Tyuratam Missile And Space Complex (TTMTR). Payload-class satellites include a variety of spacecraft equipped with specific instruments for various scientific and technological missions. These include communications satellites like Starlink; space stations such as the ISS; scientific satellites like the Hubble; Earth observation satellites from companies like Planet Labs, Umbra, and HawkEye 360; GPS; miniature CubeSats for education and research; and military/defense satellites.

Loading next visibility...
Identifier
45156, 2020-008AB
Orbit
LEO
Country
Flag of UKUK
Related business
Manufacturer
One Web
Mission
Operational Commercial Communications
Bus & Motor
ARROW, Unknown motor
Mass
148 kg wet, ~140 kg dry
Launch date (UTC)
2020-02-06 (6 years ago)
Launch vehicle
SOYUZ-2-1B
Launch site
Tyuratam Missile And Space Complex (TTMTR)
Object type
Payload
Rocket body
Debris
Shape & HBR
Trap Box + 2 Pan, 2.5 m
Radar Cross Section
2.957 m², Large (>1 m²)

Expand to show TLE details & history
Last TLE update: 8 hours ago

TLE from 8 hours ago
0 ONEWEB-0052
1 45156U 20008AB  25260.92716360 -.00000214  00000-0 -65056-3 0  9994
2 45156  87.8744  90.5306 0002252  84.5643 275.5741 13.10370181272282
Epoch: 2025-09-17T22:15Z
TLE epoch observation values (Epoch: 2025-09-17T22:15:06.935Z)
Latitude
-0.00002°
Longitude
119.65561°
Altitude
1,224.449 km
Speed
7.242 km/s
True Right ascension
06h 02m 07s
True Declination
0° 00' 00"
Sunlit
Object was in daylight at epoch
Visualization orbit readout
Latitude
Unknown
Longitude
Unknown
Altitude
Unknown
Speed
Unknown
Apparent Right ascension
Unknown
Apparent Declination
Unknown
Sunlit
N/A
Visualization observer readout
Local Sidereal Time
22:40:53
Azimuth
Unknown
Elevation
Unknown
Doppler factor
Unknown
Orbital elements
Apogee altitude
1,220.558 km
Perigee altitude
1,217.136 km
Semi-major axis
7,596.984 km
Eccentricity
0.00023
Inclination
87.8744°
RAAN
90.5306°
Arg. of periapsis
84.5643°
True anomaly
275.54842°
Mean anomaly
275.5741°
Eccentric anomaly
275.56126°
Mean motion
3.27779 °/min
Orbital period
109.83 mins
BSTAR
-0.00065056
Loading maneuver chart data...
Computing Atmospheric mass density...
Loading historical data...
Loading historical data...
Loading historical data...
Loading historical data...
Loading historical data...
Loading historical data...
Loading historical data...

Documentation

Showing up to 5 results
|